GFSSGP_sfc_temp_273.txt.gz
Temp
64 64 62 64 52 49 45 51 56 59 58 59 64 60 59 57 57 51 63 69 70 72 74 71 73 75 76 75 75 75 75 76 76 76 76 75 75 76 76 75 75 76 77 77 78 77 75 74 73
60 69 64 57 47 41 45 52 54 56 60 62 65 63 59 53 62 61 61 68 70 73 73 71 69 71 75 75 75 74 75 75 76 76 75 75 75 76 76 75 75 76 76 77 77 75 74 73 73
65 69 57 51 45 42 46 50 52 59 63 61 59 60 57 54 60 60 64 68 69 68 72 70 68 70 71 73 74 74 74 75 75 75 76 75 74 75 75 75 75 75 76 76 76 75 73 72 71
64 62 58 49 45 50 50 50 56 57 61 63 59 53 58 62 61 61 67 67 66 66 67 69 69 69 69 70 73 73 74 74 75 75 75 75 74 74 74 74 75 75 75 76 75 75 74 71 71
62 56 48 44 46 51 51 55 57 57 56 55 58 52 53 60 63 64 64 66 65 64 65 67 68 69 68 68 69 71 73 74 74 74 74 74 73 73 73 73 74 74 75 75 74 72 71 71 70
55 54 44 42 47 53 51 54 54 54 56 55 53 51 52 61 60 61 63 63 65 64 65 66 65 66 66 66 67 67 68 71 73 73 73 73 73 73 72 72 74 74 74 74 73 72 71 70 69
51 48 44 44 49 50 53 56 52 50 52 52 55 49 54 58 60 62 61 62 62 63 62 62 62 64 63 65 64 65 65 66 69 72 72 71 71 71 71 71 73 73 74 73 73 72 70 69 69
54 51 46 45 47 45 51 53 56 54 51 59 55 46 45 54 60 60 61 61 60 61 60 60 59 60 60 61 62 63 63 64 64 67 68 67 67 68 68 68 70 72 72 72 72 70 70 69 68
58 46 44 46 48 48 53 51 56 57 52 54 57 54 54 60 61 57 55 56 57 60 58 58 58 59 59 60 62 61 61 62 63 63 65 64 67 67 66 66 67 71 70 71 71 70 69 68 66
50 44 46 50 49 49 52 51 51 50 51 50 52 56 58 59 55 53 52 51 52 54 56 56 56 57 58 62 59 58 61 61 62 64 65 66 67 67 68 64 65 67 67 68 70 69 67 64 60
51 46 52 51 53 55 53 51 53 47 46 45 45 51 55 54 53 52 52 51 50 52 56 56 57 56 56 57 56 54 56 58 60 62 63 66 65 65 65 65 66 66 62 65 66 66 63 61 60
47 53 54 54 54 53 51 53 50 50 48 54 51 53 52 52 51 51 50 50 52 52 54 56 56 56 56 56 55 56 54 55 57 60 62 64 64 63 63 61 63 62 64 61 61 61 62 61 61
49 50 55 54 53 52 54 50 49 48 51 53 55 55 51 50 50 50 51 51 51 51 53 54 56 59 59 56 54 55 55 53 54 56 61 62 63 64 64 62 62 61 63 63 60 61 61 61 62
52 52 52 53 53 53 50 48 49 49 52 51 54 50 49 50 49 49 49 49 50 51 50 53 54 56 56 53 53 54 55 55 53 54 57 61 62 63 63 63 63 62 63 64 62 61 61 60 62
53 46 48 50 52 50 49 45 45 50 53 51 50 48 50 49 49 46 48 48 49 50 50 51 53 54 53 52 53 55 53 56 56 53 55 57 61 62 63 62 62 63 62 63 63 62 60 60 62
46 44 38 47 51 49 47 40 48 50 49 48 49 49 50 50 51 48 49 49 50 49 49 50 54 52 51 51 55 55 55 55 56 57 53 55 58 63 63 62 61 61 62 60 62 60 58 58 59
41 35 40 43 51 48 44 40 48 50 49 47 47 48 50 50 49 49 50 50 50 49 49 49 53 53 53 53 53 53 54 54 55 56 56 54 57 61 62 62 61 61 61 60 61 58 58 57 57
34 34 42 39 45 45 41 41 47 49 47 47 46 47 48 48 47 51 50 51 49 48 48 50 52 53 52 51 51 52 52 53 54 55 56 54 56 60 62 61 61 62 61 59 59 59 59 58 57
44 40 37 43 46 41 40 41 46 49 47 44 45 46 46 46 48 49 49 48 48 47 47 49 51 51 50 48 47 48 48 50 53 55 57 55 57 60 62 61 60 61 60 60 59 59 58 57 59
43 35 35 42 46 42 40 41 47 47 47 46 46 45 47 45 47 48 47 46 45 44 45 49 50 49 49 48 48 48 48 50 52 54 56 56 57 61 61 60 61 61 60 59 59 60 58 58 59
38 33 30 36 42 43 39 34 38 45 47 48 48 49 49 46 44 45 46 44 43 43 45 49 49 48 48 48 48 49 50 49 49 51 53 55 58 61 62 61 61 60 60 59 59 59 59 57 56
36 43 40 40 34 27 38 24 28 37 40 45 47 46 45 45 45 45 45 43 43 44 49 48 48 47 48 47 47 49 48 50 54 53 55 56 61 61 61 62 61 61 60 60 59 60 59 58 56
41 44 41 38 33 32 30 22 30 37 36 40 43 45 44 43 44 43 43 44 44 44 46 48 47 47 46 46 47 49 52 54 55 56 55 55 59 61 61 61 61 60 60 60 60 59 58 58 56
46 41 39 37 33 21 25 25 28 29 37 38 43 45 44 43 43 43 44 44 43 43 43 47 46 45 46 45 46 47 50 50 52 53 54 54 57 58 59 59 59 60 59 59 58 56 55 54 53
41 35 23 23 20 24 31 27 31 40 43 44 43 42 42 42 41 41 40 40 41 41 41 46 46 44 45 45 44 46 48 49 49 51 52 52 52 53 54 55 55 55 55 54 54 53 53 52 51
37 36 27 22 23 26 30 26 35 44 46 46 45 43 42 42 43 41 40 40 40 42 41 44 44 44 44 44 43 44 46 47 48 49 50 50 50 51 52 52 52 52 53 52 52 51 50 50 48
37 32 37 30 22 23 28 35 41 41 41 42 41 42 40 41 41 41 40 40 40 41 41 42 44 44 44 43 44 44 45 46 45 46 47 47 50 50 50 50 48 48 49 50 49 48 47 46 46
38 41 30 26 19 20 28 31 33 36 39 41 40 40 41 41 41 40 40 40 40 41 41 43 46 44 44 44 43 44 44 45 45 45 45 46 46 47 47 46 46 46 46 46 47 46 46 45 45
34 32 34 34 30 27 24 32 40 43 43 42 42 43 41 40 40 40 40 40 40 40 40 40 42 46 45 45 44 44 44 45 44 44 44 44 45 45 44 44 45 45 45 46 45 45 44 43 42
39 36 36 30 28 28 30 30 43 42 45 44 42 44 42 43 40 39 40 39 39 39 39 40 41 45 45 45 44 43 44 44 43 44 43 45 43 44 45 45 44 43 43 43 43 42 42 41 40

GFSSGP_sfc_temp_276.txt.gz
Temp
62 60 58 61 51 47 43 48 49 55 54 56 61 57 57 54 54 48 62 66 67 69 73 71 70 72 74 75 75 75 75 76 76 76 76 75 75 76 76 75 75 76 77 77 78 77 74 74 74
59 67 61 53 45 40 43 47 50 52 58 58 60 57 55 50 59 59 58 65 66 68 71 70 69 71 72 73 74 74 74 75 75 75 75 75 74 75 76 75 75 76 76 77 77 76 75 73 72
64 64 56 49 41 41 43 48 49 56 59 57 55 56 53 51 57 57 62 65 65 65 67 68 69 71 70 70 71 73 73 74 75 75 75 75 74 74 75 75 75 75 76 77 76 75 74 73 72
62 59 55 47 43 47 49 49 52 54 56 60 55 49 54 59 57 59 64 64 63 63 64 66 69 71 71 69 69 70 73 74 73 74 75 75 75 74 73 74 74 75 75 76 76 74 73 73 72
59 53 46 42 44 46 48 53 53 53 52 53 55 49 50 57 60 62 61 63 60 60 62 64 68 68 69 69 69 68 68 70 73 74 74 74 74 74 73 73 74 74 75 76 75 74 73 71 70
54 51 43 40 44 48 49 52 51 50 52 51 51 48 49 57 57 59 60 59 60 60 61 62 62 65 66 67 68 68 67 67 67 72 73 73 73 73 73 72 72 74 74 74 74 73 71 70 70
51 46 42 42 46 48 51 52 48 48 48 49 54 48 50 53 58 58 58 58 58 59 59 57 58 60 61 63 65 66 66 66 66 66 69 71 71 71 72 71 71 73 74 74 73 72 71 70 69
51 49 43 42 45 46 50 51 53 50 49 56 53 45 43 52 57 57 57 57 55 57 57 55 56 56 56 56 61 63 64 64 65 64 63 65 67 68 68 68 70 72 73 72 72 71 70 69 69
54 45 42 44 46 46 50 49 52 54 49 51 53 50 52 56 55 54 51 52 53 56 55 54 55 55 55 57 59 59 60 62 62 62 62 62 65 66 66 67 68 71 71 71 71 70 69 68 66
49 42 46 47 46 47 50 49 50 48 47 47 49 52 55 54 51 50 48 47 49 50 52 54 54 54 54 59 55 54 57 57 59 61 62 62 64 64 67 64 64 67 67 69 70 69 67 64 61
49 45 48 49 51 52 51 48 51 46 45 46 47 49 51 50 50 48 47 46 47 49 51 53 54 54 53 53 52 51 52 53 55 57 60 61 61 63 63 63 65 65 62 65 67 66 63 61 59
46 50 52 52 52 51 48 49 47 49 48 52 52 52 49 47 47 46 46 47 46 47 49 51 52 52 53 53 51 51 51 51 52 53 56 59 60 62 63 63 63 65 65 62 60 61 61 61 60
46 48 51 52 51 49 52 48 48 47 49 52 53 52 49 47 47 47 48 49 48 47 49 49 50 51 53 53 51 52 51 51 51 52 54 56 59 60 63 62 61 62 62 62 61 60 60 59 60
49 50 50 51 51 51 48 46 46 47 50 51 52 49 48 49 48 47 47 48 49 49 48 50 50 51 52 51 51 51 52 51 51 51 53 55 57 59 61 62 62 62 62 62 62 60 58 58 59
50 44 46 49 50 48 47 44 43 46 49 49 49 47 49 49 49 48 47 48 48 49 49 49 52 54 51 50 50 52 55 57 54 51 52 53 57 57 59 61 61 62 63 62 62 61 58 57 59
44 43 38 46 49 48 45 40 46 48 47 47 47 46 48 49 49 46 47 48 48 48 48 49 53 51 51 53 54 54 54 54 54 54 52 53 54 57 57 61 61 62 61 61 60 59 57 56 56
40 34 37 43 49 46 43 39 47 47 46 45 45 45 47 47 47 46 47 46 47 47 46 48 49 49 52 53 52 52 53 52 53 54 54 54 53 55 57 60 62 62 61 60 59 58 59 57 56
34 33 39 39 44 43 40 40 46 47 45 44 44 44 45 46 47 47 46 47 46 46 46 47 49 51 52 51 51 51 51 52 53 53 53 55 53 54 56 59 61 61 60 59 59 58 57 57 57
42 39 36 41 44 40 39 40 45 46 44 42 42 44 44 45 46 46 46 45 44 45 45 46 47 50 50 48 47 47 47 49 51 53 54 55 53 54 56 59 61 60 60 59 59 58 57 56 57
41 35 35 41 43 41 38 40 46 45 44 45 45 43 44 45 45 45 45 43 42 42 44 46 47 49 48 48 47 48 48 49 50 52 53 55 53 55 56 60 60 60 60 59 59 58 56 57 58
37 34 31 36 40 40 36 34 37 42 43 44 44 45 46 45 44 42 44 41 41 42 42 47 48 48 48 48 48 49 51 49 49 50 51 54 56 57 58 60 60 60 61 59 59 59 58 57 56
36 42 40 38 34 27 36 25 29 36 40 41 44 43 43 43 43 43 42 41 41 42 43 46 47 47 47 47 46 46 49 49 53 53 54 54 56 57 61 60 61 60 61 59 59 59 59 58 55
40 43 40 37 33 31 29 22 31 35 34 39 42 43 42 42 42 41 41 42 42 42 41 43 47 46 46 46 46 47 49 51 54 56 54 53 56 59 61 60 60 60 59 59 60 59 59 58 56
45 40 38 35 32 21 24 24 29 27 36 37 40 43 41 41 41 42 42 42 41 41 41 42 45 45 45 45 45 45 47 49 52 53 54 55 56 58 59 59 59 60 59 59 59 58 56 55 54
41 35 24 23 21 24 29 26 32 38 42 42 42 41 40 40 39 40 39 39 40 40 40 43 45 43 44 44 44 45 46 47 49 50 51 51 52 53 54 55 55 55 56 56 55 54 53 52 51
36 36 27 23 22 26 30 26 35 41 43 43 43 41 40 39 40 39 40 38 39 40 40 43 44 43 44 44 44 44 46 46 47 48 49 50 50 50 52 52 52 52 53 52 52 51 50 49 47
37 32 36 29 20 23 29 34 41 39 38 38 40 39 38 38 38 39 39 39 39 39 39 41 44 44 44 43 44 44 44 45 45 46 47 48 49 48 49 49 49 50 49 49 48 47 46 46 45
38 40 30 26 19 20 29 30 33 36 38 39 38 38 38 38 38 38 38 39 39 38 39 40 45 44 44 44 43 43 43 45 45 45 45 45 47 48 47 48 48 47 47 47 47 45 45 44 44
33 32 33 33 30 27 25 32 39 40 41 40 39 41 39 38 38 37 37 38 39 38 38 39 44 45 44 44 44 43 42 42 44 43 44 44 45 46 46 46 45 44 44 44 44 43 44 42 42
36 35 35 30 27 28 29 31 43 41 42 42 41 43 40 39 38 37 37 37 37 38 38 38 43 44 44 45 45 44 43 43 43 42 43 43 43 43 43 43 43 42 42 43 43 42 42 40 39

GFSSGP_sfc_temp_279.txt.gz
Temp
61 59 58 60 50 46 41 46 47 52 52 54 57 54 54 51 52 47 60 63 64 65 69 70 70 71 72 72 73 74 74 75 75 75 75 75 75 75 75 75 75 76 77 77 77 77 76 75 75
58 65 60 52 44 39 42 45 48 50 55 56 57 55 52 48 55 56 57 64 63 64 66 66 69 72 72 71 71 72 74 75 75 74 75 75 75 75 75 75 75 75 76 77 78 75 74 74 73
62 63 55 47 39 40 42 46 48 53 56 55 52 53 50 49 54 55 60 62 62 61 63 65 69 71 71 71 70 70 71 73 74 75 75 76 75 74 75 75 75 75 76 77 77 75 74 73 73
60 58 53 46 42 47 46 47 50 51 54 58 52 48 51 56 55 57 61 61 59 60 61 63 68 69 69 69 70 70 69 69 72 74 75 75 75 74 74 74 74 75 75 76 76 75 74 73 72
57 52 45 40 42 45 47 50 51 50 50 50 52 47 48 55 58 60 58 60 58 57 58 60 65 66 67 67 68 68 69 69 68 68 73 74 74 74 74 73 74 74 75 75 75 74 73 73 72
52 50 42 39 42 46 48 49 50 48 50 49 48 46 47 55 55 57 57 56 57 56 57 58 60 63 64 64 65 66 67 68 67 67 67 68 73 73 73 73 73 73 74 75 75 74 72 71 70
50 46 41 39 42 45 50 50 47 47 46 49 53 46 47 51 54 54 54 54 54 55 56 55 55 57 59 61 62 64 64 65 66 66 65 64 64 70 72 71 72 72 73 74 73 73 72 70 70
50 48 40 40 43 45 48 50 50 50 50 53 52 44 42 50 54 54 53 53 52 54 54 53 53 54 53 54 59 61 61 62 63 64 63 62 62 64 68 67 69 71 72 72 72 71 70 70 69
52 45 40 43 44 45 48 47 50 52 48 48 50 49 51 53 54 51 49 50 50 54 52 52 52 52 53 54 58 57 58 59 59 60 61 61 61 63 66 66 67 70 70 71 71 70 69 68 67
48 42 45 46 45 45 48 48 48 46 46 46 46 50 53 51 48 47 45 46 47 48 50 52 50 51 52 56 54 52 54 53 54 55 57 61 61 61 64 63 64 66 66 69 70 70 67 64 61
46 44 46 48 49 50 48 47 49 45 45 47 46 49 50 47 46 46 45 44 46 47 48 50 50 50 49 51 51 49 50 50 51 52 54 55 59 60 61 63 63 65 61 67 68 66 63 61 60
44 49 49 51 51 49 47 47 46 47 47 50 51 50 49 47 46 45 44 47 46 47 48 50 50 49 49 50 50 50 50 50 49 50 52 53 53 58 59 63 63 65 64 64 63 61 59 59 59
45 47 50 50 49 49 50 47 46 46 50 50 51 51 48 47 47 46 48 48 47 46 47 48 48 49 51 50 50 51 50 50 49 49 51 52 52 55 59 61 61 62 63 64 61 60 59 58 58
47 48 49 49 49 49 46 45 45 46 48 48 50 48 47 47 48 45 46 47 47 48 47 48 49 49 49 50 50 50 50 50 50 49 50 52 53 53 57 59 60 60 61 62 62 60 58 57 57
48 44 46 47 48 47 46 43 42 45 46 47 47 46 47 47 48 46 46 46 46 47 47 47 50 51 49 49 51 51 53 55 54 52 50 50 52 53 57 58 61 61 62 61 60 60 58 57 58
43 41 37 44 47 46 44 40 46 46 45 45 45 45 45 46 48 46 46 46 46 46 46 47 50 48 49 50 52 52 53 53 53 53 53 50 52 53 53 56 57 63 62 61 60 59 58 56 56
38 34 36 42 47 44 42 39 45 45 44 44 44 44 45 45 46 46 45 44 45 44 45 46 46 47 49 50 51 52 52 52 52 53 53 53 53 52 53 55 55 61 61 60 60 58 58 57 58
34 33 37 37 42 42 39 39 46 46 44 43 43 43 43 44 46 47 44 45 44 43 44 44 46 47 48 49 51 51 51 51 52 52 53 53 54 52 52 55 54 60 60 59 59 58 57 56 57
40 37 36 40 43 39 38 40 44 46 42 42 41 42 42 43 45 45 44 43 43 43 43 44 44 48 48 48 47 47 47 49 51 52 53 54 54 52 51 54 56 61 60 59 58 57 56 55 56
40 36 35 40 42 39 37 38 45 43 41 44 43 41 42 43 43 44 42 42 41 41 42 43 45 48 48 48 47 47 48 49 50 51 52 54 55 52 53 55 59 60 58 58 58 58 56 56 56
37 34 32 36 39 38 34 34 37 40 41 42 42 43 44 43 42 42 42 40 40 40 40 43 44 45 47 47 47 48 50 52 49 50 51 52 55 54 54 56 60 60 59 58 58 58 57 55 56
35 41 38 37 34 28 35 26 30 35 38 40 41 42 42 42 42 42 40 39 39 40 41 42 44 47 47 47 46 45 47 48 52 54 53 54 53 54 57 59 61 60 60 59 59 59 58 58 55
39 41 39 36 33 30 29 23 31 34 36 37 40 41 41 41 41 40 39 41 40 40 40 40 45 46 46 46 46 46 46 49 53 55 54 51 54 57 59 60 59 60 60 60 59 58 57 58 56
43 39 37 34 31 24 24 25 30 28 36 36 38 41 41 40 40 40 39 40 40 40 40 40 44 44 45 45 45 45 45 46 50 52 53 53 55 56 59 59 59 59 58 59 59 59 58 56 55
39 34 24 24 22 26 28 26 33 38 40 41 41 40 40 39 38 38 36 38 38 39 39 41 42 43 44 44 45 45 45 46 48 50 51 52 52 52 53 55 55 56 56 56 56 55 55 54 53
35 35 27 23 23 27 29 26 36 40 41 41 41 40 39 38 38 38 37 37 38 38 39 39 41 42 44 44 44 44 45 45 46 48 49 49 50 51 53 52 53 53 53 53 52 51 50 50 49
35 32 35 28 19 22 29 34 40 39 38 37 37 38 37 37 37 37 37 37 37 38 38 39 42 42 43 43 43 43 44 44 44 46 48 48 48 49 50 50 49 50 49 49 48 47 47 46 45
36 39 30 26 19 21 29 31 35 37 38 39 37 37 37 37 37 37 37 37 37 37 38 40 45 43 43 43 43 42 43 43 43 44 44 45 47 48 48 48 48 48 48 48 47 45 45 44 43
33 32 32 32 30 27 24 35 40 41 40 39 39 39 38 37 37 37 37 37 37 37 38 39 42 44 44 44 43 43 42 43 43 42 43 43 44 45 45 45 45 45 45 45 43 43 43 41 41
35 35 34 30 27 27 29 32 43 41 41 41 41 41 39 38 37 36 36 36 36 36 37 38 44 44 44 45 44 44 44 44 43 42 42 44 43 44 45 45 44 43 42 44 43 42 42 40 39

GFSSGP_sfc_temp_282.txt.gz
Temp
60 57 57 59 50 44 39 44 45 50 50 51 53 51 52 49 52 46 58 61 62 62 66 66 70 72 72 72 72 72 74 75 75 76 76 76 75 75 76 75 75 75 76 77 77 77 76 75 74
57 63 59 51 44 38 41 43 47 49 52 53 54 51 51 46 53 55 55 60 60 62 64 64 68 71 71 71 71 71 71 73 75 75 76 75 75 75 75 75 75 75 77 77 77 77 76 75 74
60 61 55 46 37 39 41 46 46 51 53 52 49 51 48 48 52 53 56 59 59 59 60 63 68 69 69 69 70 70 70 70 71 73 75 75 75 75 75 75 75 75 76 77 77 76 75 74 74
58 57 52 45 40 45 44 45 49 49 52 55 50 47 49 54 54 54 58 58 57 57 58 61 66 67 68 68 68 69 69 70 69 69 70 73 75 74 74 74 74 74 75 76 77 75 74 73 73
55 51 44 39 41 44 46 48 49 50 48 48 49 46 47 53 55 56 55 57 55 55 56 57 63 64 65 66 66 67 67 68 69 67 67 68 68 72 73 73 73 74 74 76 76 74 74 74 72
52 49 41 39 41 45 46 49 49 47 49 48 46 45 46 53 53 53 54 53 54 53 55 56 58 61 62 63 64 64 65 65 66 67 67 66 66 67 69 73 73 73 74 75 75 74 73 72 71
50 46 41 38 41 44 49 51 47 48 46 48 51 44 45 49 52 53 51 51 52 53 53 52 53 55 57 59 61 62 63 63 63 64 65 65 64 64 65 68 72 72 73 73 73 72 71 72 71
49 48 39 38 42 44 46 47 48 48 47 51 50 44 43 49 53 52 50 50 49 51 51 50 51 51 51 51 57 60 61 61 61 61 61 62 62 63 63 64 69 71 71 72 72 71 71 70 69
51 44 39 42 43 43 46 45 49 50 47 47 48 47 49 52 52 48 47 49 49 52 50 50 50 50 50 52 55 56 57 58 58 57 58 58 60 62 60 63 66 70 70 70 70 71 70 68 67
48 41 45 45 44 43 46 46 46 45 44 45 45 48 51 49 46 45 43 45 46 47 49 50 48 49 49 54 51 50 52 51 52 52 53 55 55 58 61 58 62 65 67 68 69 69 67 64 63
45 44 45 47 48 48 47 45 47 43 44 47 46 48 49 47 46 45 45 45 44 45 47 49 49 48 47 49 49 47 48 48 49 50 51 52 53 54 59 60 62 63 60 64 66 67 64 60 60
43 47 48 49 49 48 45 46 45 46 47 49 50 49 48 47 47 46 46 46 45 45 47 48 48 47 47 48 48 49 48 47 47 48 50 50 49 51 54 58 62 62 63 63 64 62 59 58 59
44 45 48 48 48 47 48 46 45 45 49 48 49 50 47 46 46 46 47 46 46 45 46 47 47 47 49 48 49 48 48 47 47 48 49 50 49 49 53 57 60 63 63 63 62 61 59 57 56
46 47 47 47 47 47 45 43 43 46 45 47 48 47 46 46 47 45 46 46 46 47 46 46 47 47 48 48 48 48 48 48 48 48 50 50 50 49 51 55 58 62 62 61 61 61 59 56 56
47 44 45 44 45 45 44 43 41 45 45 45 45 45 46 46 46 46 45 45 44 46 45 46 47 49 47 47 48 50 51 54 53 52 52 52 50 49 50 55 56 61 61 60 59 59 59 56 56
42 41 38 43 45 45 44 39 46 44 44 44 43 44 44 45 47 45 45 44 45 44 44 45 49 46 47 47 48 50 52 53 52 53 53 52 51 50 50 54 55 59 61 61 60 58 57 57 55
38 35 34 41 45 43 41 39 45 43 42 43 42 43 44 44 45 45 45 43 44 43 43 44 45 44 46 47 48 51 52 51 52 53 53 52 53 51 50 54 55 56 60 60 60 58 57 56 56
34 32 36 36 41 40 38 39 46 45 42 43 42 42 42 43 45 46 45 44 43 42 43 43 44 44 46 47 50 51 51 51 52 52 52 53 53 53 50 52 55 55 60 60 59 58 57 56 56
39 36 35 39 42 37 38 39 44 46 41 42 41 40 41 42 44 45 44 41 42 42 42 42 42 45 45 47 46 47 47 49 50 51 53 53 53 54 50 50 55 54 60 60 60 58 56 54 55
38 35 34 39 40 38 36 38 45 42 40 41 41 39 41 41 42 43 41 40 40 39 41 41 43 44 44 47 47 47 48 49 50 51 52 53 54 53 50 51 54 58 59 58 58 57 55 54 55
36 34 32 36 39 36 33 34 38 39 39 41 40 41 42 42 41 42 41 39 39 39 39 41 42 44 46 47 47 48 49 51 51 50 51 52 53 53 51 55 55 59 59 57 57 57 57 54 55
35 39 37 36 34 27 34 26 32 35 38 39 39 39 39 41 41 42 40 38 39 40 39 40 42 44 46 47 46 45 46 46 50 53 53 53 54 53 55 56 58 60 58 57 58 59 57 57 54
38 40 37 35 32 29 28 23 32 33 35 36 38 39 39 40 40 40 39 39 40 40 39 39 42 43 46 46 46 45 46 48 50 53 52 50 53 55 56 58 60 59 58 59 58 58 57 58 56
42 38 36 32 30 22 24 24 30 29 36 36 38 40 40 39 39 39 39 38 39 39 39 39 41 43 45 45 45 45 45 46 47 51 53 53 54 57 58 58 58 58 59 59 58 58 57 57 57
38 34 24 23 21 26 27 25 33 39 40 40 41 40 39 38 37 37 37 37 38 38 38 40 40 41 42 44 44 44 45 46 46 48 50 52 53 53 54 56 56 57 57 56 58 57 56 56 55
34 35 27 23 23 27 28 25 36 39 39 40 41 40 38 37 37 37 37 37 37 38 38 39 40 41 43 43 43 44 44 45 45 46 48 49 50 52 53 53 53 53 53 53 53 53 53 52 51
34 31 35 28 18 22 29 34 40 39 39 36 37 37 37 37 36 37 36 36 37 37 38 38 40 43 41 43 43 43 43 43 43 45 46 47 48 49 49 50 50 50 50 51 50 49 49 49 48
36 39 30 26 21 20 29 31 35 39 39 38 37 36 36 36 36 36 36 35 36 36 37 39 41 40 41 43 43 43 43 43 44 44 43 44 46 47 47 48 48 48 48 48 48 46 46 45 44
33 32 31 32 29 27 24 35 41 41 40 39 39 39 37 36 36 36 36 35 36 36 37 38 40 40 42 43 43 43 42 43 43 43 43 43 44 45 45 46 46 45 45 46 45 44 44 42 41
35 34 33 29 27 26 28 32 43 41 38 40 41 40 38 38 37 36 36 35 35 36 37 37 41 40 43 42 42 43 43 43 42 42 42 43 43 43 44 44 43 43 43 45 44 42 42 41 39

GFSSGP_sfc_temp_285.txt.gz
Temp
62 61 63 62 55 51 48 52 56 57 58 58 59 60 59 56 58 54 63 65 65 66 68 68 70 71 71 71 71 71 72 73 74 76 76 76 76 76 76 75 75 75 76 77 77 77 76 75 74
61 66 62 55 49 45 48 53 53 57 59 57 58 58 58 57 59 60 62 64 64 65 66 67 68 69 70 70 70 70 71 71 71 72 73 75 75 75 75 76 75 75 77 77 77 77 76 74 74
64 64 59 50 44 46 48 53 55 58 59 58 56 56 56 55 58 60 63 63 63 62 63 65 67 68 68 69 69 69 69 70 71 70 70 71 74 74 74 74 75 75 76 77 77 77 76 74 74
62 61 55 50 46 50 52 55 57 57 58 59 57 55 56 61 60 62 62 62 62 61 62 62 65 66 66 67 67 67 68 68 69 70 69 69 70 71 73 73 74 74 76 77 77 76 75 74 74
58 55 48 45 47 51 53 56 56 56 57 56 56 55 54 59 61 60 60 61 60 60 60 61 62 63 64 65 65 66 66 66 67 67 68 68 68 68 69 72 73 73 74 75 76 75 74 73 73
54 53 46 44 46 51 54 56 56 56 56 56 55 51 54 60 60 58 59 58 59 58 58 59 58 60 61 62 63 63 64 64 65 65 65 66 67 67 67 68 71 73 73 74 74 74 72 73 71
52 49 46 45 46 49 53 55 54 54 54 55 56 53 54 56 58 57 57 58 58 58 57 57 57 57 57 58 60 61 62 62 63 63 63 63 63 65 66 65 67 71 72 73 72 72 72 72 71
51 51 44 44 45 48 52 54 54 54 55 56 58 52 53 56 57 56 57 57 57 56 56 56 56 56 55 56 57 59 60 60 60 61 60 59 60 61 63 63 64 67 71 72 71 71 72 71 70
54 47 43 47 45 49 52 51 55 56 54 54 55 55 56 55 55 55 55 55 56 57 55 55 55 55 55 56 58 56 56 57 58 57 57 58 59 61 62 62 62 66 69 70 70 70 70 69 67
51 44 47 50 50 49 51 51 52 52 51 52 52 54 54 54 54 53 53 54 53 54 55 55 54 54 54 56 56 54 55 55 55 55 55 57 58 58 59 59 59 62 64 68 69 69 67 65 68
48 47 48 51 51 52 51 49 53 50 48 52 51 52 52 52 52 52 52 52 53 53 53 54 53 54 53 53 53 52 52 52 53 53 54 55 56 56 57 59 62 64 60 66 67 65 63 64 66
46 49 50 52 51 50 49 51 49 49 53 54 54 53 51 51 50 51 51 52 52 52 52 53 53 52 53 53 53 53 53 52 51 53 53 53 53 54 55 56 60 61 64 64 64 62 61 64 65
47 48 50 51 50 49 49 48 48 47 51 52 52 51 51 50 50 51 52 52 51 51 51 52 52 52 52 51 52 52 52 52 52 52 53 53 53 53 54 56 58 58 63 63 62 60 60 61 62
49 49 49 50 49 49 47 47 46 50 49 48 49 49 50 50 51 51 50 51 51 50 50 51 51 51 51 51 50 51 52 52 52 51 52 53 53 53 54 54 56 56 62 63 62 60 59 60 62
48 45 46 46 48 47 47 45 43 49 48 48 47 48 49 49 50 50 51 51 51 50 49 49 50 52 50 49 50 51 52 54 54 54 54 53 53 53 54 54 56 57 62 62 60 60 58 58 61
43 43 41 44 46 46 46 44 49 48 46 47 46 46 47 48 49 50 49 49 51 48 47 48 50 49 49 49 50 51 52 54 54 54 54 54 53 54 53 53 55 56 60 61 60 58 56 58 60
40 39 38 43 46 45 44 42 48 46 45 46 45 46 46 47 48 48 49 50 49 47 46 47 48 48 48 49 51 52 53 53 53 53 53 53 53 53 53 54 55 55 59 60 60 58 56 56 60
37 37 38 38 43 41 40 41 48 48 45 46 46 45 45 46 48 49 49 49 48 46 46 46 47 47 48 48 51 52 52 53 53 52 53 53 53 54 54 54 54 54 59 60 60 58 57 58 57
41 38 37 40 43 40 39 40 44 48 44 45 45 44 44 45 48 48 47 48 46 46 45 45 45 47 47 48 48 48 48 50 51 53 53 53 53 54 54 54 54 54 56 60 60 58 56 55 55
39 37 36 40 41 40 37 40 47 44 42 43 43 42 43 44 45 45 46 47 44 43 44 44 45 46 47 48 48 48 49 49 50 52 53 54 53 54 55 54 54 55 55 59 58 57 54 55 57
37 35 33 38 39 38 34 36 41 42 42 43 43 42 42 43 43 43 44 46 44 43 42 44 44 45 47 48 48 49 51 51 52 52 52 53 54 55 54 53 53 54 58 58 58 57 55 53 54
36 39 38 37 36 30 36 28 34 38 40 41 42 41 41 42 43 43 44 44 44 43 43 43 44 45 48 47 47 46 46 47 50 54 55 53 55 56 55 56 55 60 60 58 58 58 57 57 52
38 40 38 36 34 32 31 26 34 37 39 40 42 42 41 41 42 41 42 43 44 42 42 43 43 45 47 46 47 46 46 48 52 52 55 53 54 56 57 56 58 59 59 59 59 58 57 58 55
41 39 36 33 32 24 27 27 33 33 39 40 40 41 41 40 40 41 42 42 42 42 42 42 43 44 46 46 46 45 45 47 48 48 51 54 56 56 59 59 59 59 59 59 59 59 58 58 57
38 35 27 25 22 27 28 27 35 41 42 43 42 41 40 40 39 39 40 40 41 41 41 42 43 43 45 45 45 45 45 46 46 48 48 49 53 55 56 58 58 59 59 59 59 58 57 57 56
35 36 30 24 23 28 29 27 39 40 41 42 42 42 40 39 39 39 39 39 40 40 41 42 43 43 43 44 44 45 45 45 46 47 47 48 49 51 53 54 55 55 56 56 58 57 56 55 53
35 32 36 29 18 22 31 36 43 41 40 39 40 39 38 38 38 38 38 39 40 40 41 41 42 43 43 44 44 44 44 44 45 46 47 46 48 50 50 51 50 51 52 53 55 54 53 54 53
35 38 30 26 22 21 30 32 38 41 42 40 39 38 38 38 38 38 38 38 39 40 40 42 43 43 44 44 44 44 44 44 45 46 45 45 46 47 48 49 49 48 49 49 49 49 50 49 48
32 31 32 33 30 27 25 35 41 43 43 41 41 40 39 38 38 38 37 37 39 39 39 41 42 43 45 44 44 44 43 43 44 44 44 45 45 46 46 47 47 47 47 46 46 45 45 44 43
33 34 33 30 27 26 29 33 44 43 42 41 41 41 40 39 39 38 37 37 37 38 39 40 42 44 43 44 44 44 44 44 43 43 43 45 45 45 46 45 45 45 45 46 45 44 44 43 41

GFSSGP_sfc_temp_288.txt.gz
Temp
73 79 83 82 69 68 63 65 69 67 67 71 71 72 72 70 69 64 72 73 73 74 75 75 69 70 71 71 71 71 71 72 72 73 74 75 76 76 76 76 74 74 76 76 76 75 75 74 73
78 77 82 78 66 61 67 68 65 71 70 70 69 68 68 69 67 67 70 71 72 73 74 74 67 69 69 69 69 69 70 70 71 71 72 72 74 75 75 75 75 74 76 76 76 76 76 74 74
75 77 77 72 66 62 65 66 69 68 69 68 68 67 69 68 67 71 72 71 72 72 72 71 66 67 68 68 68 68 68 69 69 70 71 71 71 72 73 73 74 74 75 77 77 77 75 74 74
78 79 75 66 63 66 66 69 70 67 67 69 69 67 66 70 69 73 71 71 71 70 71 69 64 65 66 66 67 67 67 68 68 68 69 69 70 70 69 71 72 74 74 76 77 76 75 74 73
79 76 65 61 63 65 68 69 70 68 69 68 67 68 65 67 71 71 71 71 71 71 70 69 62 63 64 64 65 65 65 66 66 66 66 67 68 68 69 69 70 72 73 75 75 75 74 73 73
72 73 63 60 64 65 67 70 69 68 69 67 65 65 67 70 68 69 70 70 70 69 67 68 61 60 61 62 62 63 64 64 64 65 65 65 65 66 67 68 69 70 73 73 74 74 72 72 72
69 66 62 61 63 62 66 68 67 69 68 68 68 65 67 66 70 70 70 70 68 69 68 68 67 64 60 60 60 61 62 62 62 62 63 63 62 63 64 65 67 69 70 73 73 72 71 72 71
72 68 58 61 62 62 65 65 65 66 68 67 70 66 66 70 69 69 69 69 69 67 67 67 66 66 65 64 61 59 60 60 60 60 60 60 60 60 62 63 65 65 69 71 72 71 71 71 70
66 63 60 61 58 63 64 62 65 66 66 65 67 67 67 69 67 66 66 67 67 67 66 67 66 66 65 64 64 60 60 59 59 60 59 59 63 65 65 64 62 64 66 68 71 70 70 69 67
65 61 63 64 65 63 64 63 65 62 63 63 65 66 64 64 65 64 65 67 66 66 65 66 66 65 64 65 64 62 62 63 62 62 62 62 63 64 62 59 58 61 62 63 68 69 68 65 67
62 62 63 64 64 62 62 60 65 63 62 68 67 69 64 63 64 65 66 67 67 66 66 65 64 64 63 63 63 63 63 62 62 61 61 61 62 62 63 64 65 67 61 67 68 68 64 63 63
59 62 62 62 60 59 59 63 61 63 68 67 70 68 66 63 64 65 65 65 65 64 64 63 64 63 63 63 63 63 61 62 61 61 61 60 60 61 61 63 64 66 66 68 68 63 61 61 63
59 61 60 62 59 59 59 59 60 62 68 68 64 62 64 65 66 66 65 64 63 62 63 64 63 62 62 61 62 61 60 61 61 60 60 60 60 60 61 61 63 62 63 67 65 61 60 61 61
61 59 60 59 59 58 55 59 55 65 63 65 62 63 65 65 65 65 63 63 61 61 62 62 62 62 61 60 59 59 60 61 61 61 60 59 58 58 60 61 61 62 61 61 61 61 60 59 62
57 56 59 58 57 56 55 54 53 66 60 61 61 63 63 64 64 64 65 62 62 61 60 60 60 61 59 59 59 59 60 60 60 60 60 58 57 56 58 60 60 62 60 60 61 60 60 59 64
55 54 55 56 55 56 54 58 63 61 61 62 63 62 61 63 63 65 63 61 60 59 58 59 59 59 58 58 58 59 61 60 59 57 55 55 55 56 56 58 60 61 58 60 59 59 56 57 62
54 55 53 55 55 54 53 57 64 59 59 63 64 63 61 62 62 63 62 60 59 57 57 58 58 58 57 57 58 59 60 58 57 57 55 55 55 55 57 58 60 58 54 60 59 58 57 57 62
51 52 51 51 54 51 52 52 61 65 62 62 66 65 62 60 62 63 61 59 58 57 57 57 58 57 56 57 57 58 58 57 58 56 55 55 54 55 58 59 59 54 54 59 58 56 58 58 58
53 51 50 54 52 48 53 53 57 63 62 60 62 63 62 61 64 60 59 58 57 56 56 56 55 55 55 53 52 52 50 55 55 54 55 55 54 55 58 59 54 55 53 59 58 56 57 56 56
50 48 49 53 50 48 52 50 58 57 56 57 58 58 58 59 57 56 56 57 54 54 55 55 54 54 51 51 51 50 50 54 56 54 55 55 55 56 59 59 52 53 56 59 57 58 55 54 57
48 46 43 47 50 47 47 53 55 54 52 54 54 54 53 55 56 54 54 56 55 54 54 53 53 53 53 52 51 51 55 56 55 56 57 55 57 58 59 59 53 54 56 58 58 58 56 54 56
46 50 47 45 47 44 48 39 40 52 53 52 54 52 52 52 56 55 54 54 54 53 52 53 53 52 52 52 50 49 50 49 52 55 59 56 56 59 59 58 57 58 57 59 58 57 57 57 54
49 49 47 45 46 44 43 39 47 49 51 54 53 52 52 53 54 53 53 53 52 52 53 53 53 52 50 51 49 49 54 53 54 54 56 58 60 59 57 56 55 58 59 60 59 57 56 58 56
48 47 45 44 45 36 36 40 46 51 51 52 52 51 51 51 53 53 53 52 52 52 52 53 52 51 50 50 50 50 52 51 52 51 52 56 57 57 57 59 61 63 61 60 59 58 57 56 56
46 45 39 36 34 39 37 38 47 54 55 54 55 53 52 51 51 51 50 51 51 50 51 52 51 50 51 49 49 50 49 50 50 49 50 52 56 57 57 59 58 59 62 63 60 57 57 57 56
44 46 44 34 36 42 36 37 53 53 53 54 53 56 53 51 51 51 51 51 51 50 50 50 50 50 50 50 49 51 48 48 50 51 50 49 51 53 59 57 58 60 60 63 63 61 56 56 54
43 40 45 38 28 35 47 49 55 51 52 51 53 51 52 52 51 51 51 51 51 51 51 49 50 49 48 48 49 51 48 48 48 51 51 50 49 50 54 59 55 56 56 59 60 58 58 55 55
46 48 39 40 32 32 43 42 51 51 52 53 52 52 54 54 52 51 51 51 52 52 51 50 50 48 47 47 50 50 47 48 49 49 49 50 50 50 50 51 51 51 51 51 52 54 56 55 55
41 41 41 44 41 38 37 48 56 55 55 56 56 55 55 53 53 52 52 52 52 51 51 51 51 51 48 47 49 50 48 50 47 48 48 48 52 50 50 50 50 50 49 48 48 48 50 49 49
45 45 46 43 34 37 36 47 53 54 53 52 54 55 55 55 54 54 52 51 50 50 51 51 52 52 50 48 47 47 49 49 47 47 49 48 49 50 50 50 51 51 50 49 48 46 47 47 45

GFSSGP_sfc_temp_291.txt.gz
Temp
75 86 88 83 69 71 67 69 77 72 72 79 78 77 76 77 73 66 76 78 78 78 79 77 69 70 70 70 70 70 70 71 72 72 73 73 74 75 76 76 76 75 76 76 76 76 76 74 74
85 84 84 80 67 64 70 76 70 76 77 77 76 75 74 73 75 72 74 76 78 78 78 76 67 68 69 69 69 69 69 70 71 71 72 72 73 73 74 74 74 75 76 76 76 76 76 74 74
77 84 77 73 70 66 69 73 76 76 75 75 74 75 75 74 74 77 77 77 77 76 76 73 65 67 67 68 68 68 68 68 69 69 70 71 71 72 72 73 73 73 75 76 76 75 75 74 73
81 81 80 68 66 73 72 75 76 73 73 75 76 71 74 77 76 79 77 77 77 75 76 69 65 65 66 66 66 66 67 67 67 68 68 68 69 69 70 71 71 73 73 76 76 75 74 73 73
82 80 69 66 68 74 76 77 76 74 75 74 74 72 72 73 77 77 75 76 76 75 75 74 63 63 64 64 65 65 65 66 66 66 66 67 67 68 68 69 70 71 72 73 75 75 73 73 73
74 77 65 63 70 74 76 78 75 74 77 74 71 73 75 77 74 75 77 76 76 75 72 72 63 61 61 62 63 63 64 64 65 65 65 65 66 66 66 67 68 69 71 72 73 73 72 72 72
70 70 66 68 68 70 73 75 73 74 75 73 75 69 75 72 75 76 76 76 75 74 72 72 71 68 61 63 62 62 62 63 63 63 63 63 63 63 64 64 65 67 69 71 72 72 71 72 71
74 71 66 68 67 67 72 71 72 73 73 75 76 70 72 76 76 75 75 74 74 74 73 72 71 70 69 68 64 62 61 61 61 61 60 60 60 60 61 61 64 66 67 68 70 71 71 71 70
73 66 64 67 66 69 71 68 73 73 72 71 74 74 73 77 74 71 70 71 72 72 71 71 70 70 69 68 68 62 62 62 61 62 61 61 64 66 66 65 64 64 65 66 68 69 70 69 67
68 63 67 71 72 69 71 69 73 68 70 71 71 75 71 72 70 68 69 70 71 71 70 71 70 69 68 69 68 66 67 67 66 65 64 65 65 65 64 59 59 60 61 62 65 64 69 66 68
68 63 70 70 70 70 69 69 72 68 66 74 72 75 72 69 69 69 70 72 73 73 71 71 69 68 67 66 66 66 66 66 65 64 64 63 64 64 64 65 65 66 61 66 68 67 67 64 63
61 68 69 68 66 65 64 70 67 69 70 77 75 78 76 68 69 69 70 72 71 70 70 69 68 66 66 66 66 66 65 64 63 64 64 62 61 61 61 62 64 65 68 65 67 67 62 61 61
62 67 67 68 65 64 66 63 65 67 74 77 75 71 72 71 70 72 72 72 70 68 69 68 67 66 66 64 65 64 63 63 63 63 63 62 60 59 61 59 60 64 65 63 63 61 61 60 60
66 65 66 67 65 65 59 63 61 69 71 71 73 68 70 71 71 72 70 69 67 67 66 66 66 65 65 63 63 63 63 63 62 61 61 59 58 56 59 59 58 63 65 62 61 61 59 58 58
63 59 67 66 64 61 60 59 59 70 72 68 69 70 69 71 72 71 71 68 69 66 65 64 64 64 63 63 62 62 62 62 60 59 60 58 56 56 57 58 57 62 64 59 60 60 60 58 58
59 60 58 62 61 60 58 60 71 72 69 67 70 70 69 70 70 71 72 69 67 64 62 63 64 63 62 61 61 62 62 61 59 58 58 56 55 56 56 57 57 61 61 56 59 59 58 58 59
60 56 60 62 62 60 57 59 71 69 67 67 71 70 69 68 69 70 70 67 66 63 61 62 62 62 61 61 61 61 61 59 58 58 57 56 56 55 55 56 57 60 56 56 60 58 58 59 62
53 55 61 58 59 56 56 56 65 70 69 68 70 72 70 67 68 69 68 66 64 63 61 61 62 61 60 60 59 59 60 58 58 56 54 55 55 55 56 56 57 57 54 57 58 58 59 60 59
59 57 55 62 60 53 57 59 63 69 70 69 70 69 71 69 70 69 66 63 62 62 60 60 59 60 58 57 53 52 52 54 56 56 55 57 55 56 57 57 56 54 53 58 58 58 56 53 54
56 53 53 60 58 51 57 56 62 66 64 66 68 68 67 69 67 63 62 61 60 60 59 59 58 58 58 56 53 52 52 55 54 57 59 57 57 58 58 57 52 54 55 57 58 58 55 54 57
54 50 47 52 56 58 51 55 63 63 60 62 61 61 61 63 63 60 59 59 60 59 58 57 57 57 57 54 53 54 57 57 58 55 59 59 59 58 59 56 53 54 58 57 58 57 56 54 58
51 58 54 50 50 48 53 39 41 63 61 60 61 59 59 58 62 60 58 58 59 58 57 57 57 56 55 54 51 52 51 51 53 54 59 59 61 61 58 55 55 55 60 58 60 59 59 58 54
52 54 52 50 49 49 49 40 49 59 56 60 59 58 57 58 60 58 57 58 58 57 57 57 57 56 54 52 51 51 52 53 54 53 55 60 60 61 58 57 58 58 60 60 59 57 58 57 56
54 51 50 50 49 38 44 44 49 56 56 57 57 56 55 56 58 58 58 57 56 56 56 56 55 55 54 52 51 51 51 52 52 53 52 59 60 60 60 59 61 60 60 58 57 58 57 56 56
51 49 41 37 36 40 42 41 50 59 60 60 59 56 56 56 56 55 54 54 55 55 55 55 55 54 55 52 52 51 51 53 52 51 52 53 59 59 60 60 62 61 60 59 58 57 56 56 55
46 51 45 35 40 45 40 39 52 60 61 60 62 59 56 55 56 55 55 56 55 55 55 54 54 53 53 52 51 52 50 52 52 53 52 52 52 54 61 61 61 62 61 59 58 56 56 55 54
48 41 51 44 34 37 51 54 60 55 56 57 57 57 56 56 56 56 56 56 56 55 55 54 53 52 52 52 52 51 50 50 53 53 52 52 52 53 55 56 56 60 62 61 60 57 57 55 54
49 54 42 43 33 34 49 47 52 52 55 56 57 57 58 59 57 57 56 56 57 57 56 55 54 52 52 52 52 51 49 50 51 53 52 50 51 52 55 56 57 56 55 58 58 57 56 54 54
43 44 45 48 46 40 41 50 61 61 60 59 60 60 61 59 58 57 56 57 57 57 56 55 55 55 53 53 53 52 49 52 50 52 51 52 51 51 52 54 53 51 51 51 53 55 56 53 54
51 49 49 43 39 43 40 48 58 59 58 57 60 62 63 62 60 59 57 56 56 55 55 55 55 55 54 53 53 51 49 51 50 51 51 50 51 51 52 52 52 52 50 49 50 50 51 50 49